CW8262 Tokoroa NZ current weather conditions

sailwx.info

Wind from 147 at 0 knots gusting 2

Air temperature 10.0° C
Dewpoint 8.3° C

Last reported at 2020-May-29 06:52 UTC.
Time now 2020-May-29 07:27 UTC

Location: S 38°12' E 175°52'.
View on Google Maps.

See reports from other nearby stations

  
Tides and Currents Weather Stations Pressure Air Temp Water Temp Dewpoint Dewpoint Depression Visibility Wind Speed Wind Dir Waves Ship Positions
date/time (UTC)wind fromknots sea level pressurealtimeterstation pressurevisibilityair tempwater tempwave heightnotes
2020-May-29 06:52 147 0 gusting 2 10.0
2020-May-29 06:47 158 0 gusting 1 10.0
2020-May-29 06:32 158 10.0
2020-May-29 06:27 135 10.0
2020-May-29 06:22 135 10.0
2020-May-29 06:17 112 10.0
2020-May-29 06:12 112 10.6
2020-May-29 06:07 112 10.6
2020-May-29 06:02 112 10.6
2020-May-29 05:57 112 0 gusting 1 10.6
2020-May-29 05:52 112 0 gusting 1 10.6
2020-May-29 05:42 112 10.6
2020-May-29 05:27 135 10.6
2020-May-29 05:22 148 10.6
2020-May-29 05:17 158 10.6
2020-May-29 05:07 135 10.6
2020-May-29 05:02 125 10.6
2020-May-29 04:57 112 10.6
2020-May-29 04:52 112 11.1
2020-May-29 04:47 112 11.1
2020-May-29 04:42 112 11.1
2020-May-29 04:37 112 0 gusting 0 11.1
2020-May-29 04:32 135 0 gusting 1 11.1
2020-May-29 04:22 135 11.1
2020-May-29 04:17 135 11.1
2020-May-29 04:12 135 0 gusting 1 11.1
2020-May-29 04:07 135 0 gusting 4 11.7
2020-May-29 03:57 135 1 gusting 4 11.7
2020-May-29 03:52 149 1 gusting 2 11.7
2020-May-29 03:47 135 1 gusting 2 11.7
2020-May-29 03:42 144 0 gusting 1 11.7
2020-May-29 03:37 135 0 gusting 1 12.2
2020-May-29 03:32 135 0 gusting 1 12.2
2020-May-29 03:27 135 12.2
2020-May-29 03:22 151 12.2
2020-May-29 03:17 135 12.2
2020-May-29 03:12 143 12.2
2020-May-29 03:07 158 0 gusting 2 12.2
2020-May-29 03:02 135 12.2
2020-May-29 02:57 158 12.2
2020-May-29 02:42 158 12.8
2020-May-29 02:22 142 12.8
2020-May-29 02:17 135 12.8
2020-May-29 02:12 135 12.8
2020-May-29 02:07 135 12.8
2020-May-29 02:02 144 12.8
2020-May-29 01:57 158 12.8
2020-May-29 01:47 135 12.8
2020-May-29 01:42 145 12.2
2020-May-29 01:22 153 12.2
2020-May-29 01:02 117 11.7
2020-May-29 00:52 146 11.7
2020-May-29 00:42 140 11.7
2020-May-29 00:27 112 0 gusting 1 11.7
2020-May-29 00:22 140 0 gusting 1 11.7
2020-May-29 00:17 135 0 gusting 1 11.7
2020-May-29 00:07 135 0 gusting 1 11.1
2020-May-29 00:02 158 0 gusting 1 11.1
2020-May-28 23:57 135 0 gusting 1 11.7
2020-May-28 23:52 135 0 gusting 1 11.7
2020-May-28 23:47 158 0 gusting 1 11.7
2020-May-28 23:42 142 0 gusting 1 11.7
2020-May-28 23:37 135 0 gusting 2 11.7
2020-May-28 23:22 158 0 gusting 1 11.1
2020-May-28 23:17 135 1 gusting 2 10.6
2020-May-28 23:12 135 1 gusting 2 10.0
2020-May-28 23:07 135 1 gusting 1 10.0
2020-May-28 22:57 158 1 gusting 1 10.0
2020-May-28 22:52 140 1 gusting 4 10.0
2020-May-28 22:47 158 0 gusting 2 9.4
2020-May-28 22:42 175 0 gusting 2 9.4
2020-May-28 22:37 135 0 gusting 1 9.4
2020-May-28 22:27 135 1 gusting 1 8.9
2020-May-28 22:22 135 1 gusting 4 8.9
2020-May-28 22:17 135 1 gusting 4 8.9
2020-May-28 22:12 175 1 gusting 4 8.9
2020-May-28 22:07 135 2 gusting 4 8.3
2020-May-28 22:02 135 1 gusting 4 8.3
2020-May-28 21:57 158 1 gusting 4 8.3
2020-May-28 21:42 191 1 gusting 4 7.8
2020-May-28 21:37 135 1 gusting 4 7.8
2020-May-28 21:32 164 1 gusting 4 7.8
2020-May-28 21:27 135 2 gusting 2 7.8
2020-May-28 21:22 141 2 gusting 4 7.8
2020-May-28 21:07 158 1 gusting 4 7.2
2020-May-28 21:02 173 1 gusting 2 7.2
2020-May-28 20:27 135 0 gusting 2 6.7
2020-May-28 20:22 165 0 gusting 1 6.7
2020-May-28 20:17 135 0 gusting 1 6.7
2020-May-28 20:12 165 0 gusting 1 6.7
2020-May-28 20:02 143 6.7
2020-May-28 19:52 141 6.7
2020-May-28 19:42 123 1 gusting 2 6.7
2020-May-28 19:37 135 0 gusting 1 6.7
2020-May-28 19:32 158 0 gusting 2 6.7
2020-May-28 19:27 180 0 gusting 1 6.7
2020-May-28 19:17 135 0 gusting 2 6.7
2020-May-28 19:12 158 0 gusting 2 6.7
2020-May-28 19:02 192 0 gusting 1 6.7
2020-May-28 18:57 158 0 gusting 2 6.7
2020-May-28 18:52 148 0 gusting 2 6.7
2020-May-28 18:47 158 1 gusting 2 6.7
2020-May-28 18:42 149 0 gusting 2 6.7
2020-May-28 18:37 135 0 gusting 1 6.7
2020-May-28 18:32 158 0 gusting 1 6.7
2020-May-28 18:27 158 0 gusting 1 6.7
2020-May-28 18:12 162 1 gusting 4 6.7
2020-May-28 18:07 180 0 gusting 4 6.7
2020-May-28 18:02 164 0 gusting 1 6.7
2020-May-28 17:57 135 6.7
2020-May-28 17:52 158 6.7
2020-May-28 17:47 135 0 6.1
2020-May-28 17:37 158 1 gusting 2 6.1
2020-May-28 17:27 158 0 gusting 2 6.1
2020-May-28 17:22 146 0 gusting 2 6.1
2020-May-28 17:17 135 0 gusting 1 6.1
2020-May-28 17:12 180 6.1
2020-May-28 17:07 180 6.1
2020-May-28 17:02 233 6.1
2020-May-28 16:57 158 6.1
2020-May-28 16:42 135 6.1
2020-May-28 16:37 135 0 gusting 1 6.1
2020-May-28 16:27 158 0 gusting 1 6.1
2020-May-28 16:22 149 6.1
2020-May-28 16:07 158 6.1
2020-May-28 16:02 135 6.1
2020-May-28 15:57 158 6.1
2020-May-28 15:52 137 6.1
2020-May-28 15:47 112 5.6
2020-May-28 15:37 135 0 gusting 0 5.6
2020-May-28 15:27 135 0 gusting 1 5.6
2020-May-28 15:22 112 5.6
2020-May-28 15:17 112 5.6
2020-May-28 15:12 158 5.6
2020-May-28 15:02 177 5.6
2020-May-28 14:57 112 5.0
2020-May-28 14:52 125 5.0
2020-May-28 14:47 135 5.0
2020-May-28 14:42 103 5.0
2020-May-28 14:37 112 5.0
2020-May-28 14:32 135 5.0
2020-May-28 14:27 135 5.0
2020-May-28 14:22 166 4.4
2020-May-28 14:17 112 4.4
2020-May-28 14:12 150 4.4
2020-May-28 14:07 135 4.4
2020-May-28 14:02 143 4.4
2020-May-28 13:57 112 4.4
2020-May-28 13:42 143 0 gusting 1 4.4
2020-May-28 13:37 158 0 gusting 1 4.4
2020-May-28 13:32 138 3.9
2020-May-28 13:27 135 3.9
2020-May-28 13:12 122 3.9
2020-May-28 13:07 158 0 gusting 0 3.9
2020-May-28 13:02 158 0 gusting 1 3.9
2020-May-28 12:57 158 3.9
2020-May-28 12:52 148 3.9
2020-May-28 12:47 158 3.9
2020-May-28 12:42 149 3.9
2020-May-28 12:32 112 3.9
2020-May-28 12:17 158 3.9
2020-May-28 12:02 112 0 gusting 0 3.9
2020-May-28 11:57 135 3.9
2020-May-28 11:52 129 3.9
2020-May-28 11:37 112 3.3
2020-May-28 11:32 153 3.3
2020-May-28 11:27 158 0 gusting 0 3.3
2020-May-28 11:22 158 0 gusting 1 3.3
2020-May-28 11:12 120 0 gusting 0 3.3
2020-May-28 10:52 158 3.3
2020-May-28 10:47 135 3.3
2020-May-28 10:42 149 3.3
2020-May-28 10:37 158 3.3
2020-May-28 10:32 135 3.3
2020-May-28 10:27 135 3.3
2020-May-28 10:22 158 3.3
2020-May-28 10:17 158 3.3
2020-May-28 10:12 143 3.3
2020-May-28 10:07 158 0 gusting 0 3.3
2020-May-28 10:02 129 3.3
2020-May-28 09:57 180 3.3
2020-May-28 09:52 139 3.3
2020-May-28 09:37 135 3.9
2020-May-28 09:32 149 3.9
2020-May-28 09:27 180 3.9
2020-May-28 09:22 164 3.9
2020-May-28 09:17 135 4.4
2020-May-28 09:07 135 4.4
2020-May-28 09:02 158 4.4
2020-May-28 08:52 158 5.0
2020-May-28 08:47 112 0 5.0
2020-May-28 08:27 112 5.0
2020-May-28 08:22 135 5.0
2020-May-28 08:17 112 5.6
2020-May-28 08:12 112 5.6
2020-May-28 08:07 135 5.6
2020-May-28 08:02 117 5.6
2020-May-28 07:57 135 5.6
2020-May-28 07:52 135 5.6
2020-May-28 07:47 135 5.6
2020-May-28 07:42 128 6.1
2020-May-28 07:37 112 6.1
2020-May-28 07:32 119 6.1
2020-May-28 07:27 112 6.7
2020-May-28 07:22 112 6.7
2020-May-28 07:12 114 6.7
2020-May-28 07:07 112 6.7
2020-May-28 07:02 135 7.2
2020-May-28 06:47 112 7.8
2020-May-28 06:32 120 8.3
2020-May-28 06:22 112 8.3
2020-May-28 06:17 112 8.3
2020-May-28 06:12 112 8.3
2020-May-28 06:02 112 8.9
2020-May-28 05:52 077 9.4
2020-May-28 05:47 068 9.4
2020-May-28 05:42 068 9.4
2020-May-28 05:37 068 9.4
2020-May-28 05:32 068 10.0
2020-May-28 05:27 068 10.0
2020-May-28 05:22 068 10.0
2020-May-28 05:17 090 10.6
2020-May-28 05:12 090 10.6
2020-May-28 05:02 090 11.1
2020-May-28 04:52 090 11.1
2020-May-28 04:47 090 11.7
2020-May-28 04:42 090 11.7
2020-May-28 04:22 068 11.7
2020-May-28 04:17 022 11.7
2020-May-28 04:12 022 11.7
2020-May-28 04:02 338 12.2
2020-May-28 03:52 315 12.8
2020-May-28 03:47 292 12.8
2020-May-28 03:27 315 13.3
2020-May-28 03:17 292 13.3
2020-May-28 03:12 270 13.3
2020-May-28 03:07 292 13.3
2020-May-28 03:02 252 13.3
2020-May-28 02:57 180 13.3
2020-May-28 02:52 156 13.3
2020-May-28 02:47 135 13.3
2020-May-28 02:42 228 13.3
2020-May-28 02:32 270 13.3
2020-May-28 02:22 276 13.3
2020-May-28 02:17 315 13.3
2020-May-28 02:12 274 13.3
2020-May-28 02:07 270 0 13.3
2020-May-28 01:57 270 0 gusting 1 13.9
2020-May-28 01:52 258 13.9
2020-May-28 01:47 112 14.4
2020-May-28 01:42 112 14.4
2020-May-28 01:37 112 14.4
2020-May-28 01:32 112 15.0
2020-May-28 01:27 112 15.0
2020-May-28 01:22 112 15.0
2020-May-28 01:12 112 15.0
2020-May-28 01:07 112 15.0
2020-May-28 00:57 112 15.6
2020-May-28 00:52 112 15.6
2020-May-28 00:37 112 15.6
2020-May-28 00:22 112 15.0
2020-May-28 00:17 112 15.0
2020-May-28 00:12 112 14.4
2020-May-28 00:02 112 13.9
2020-May-27 23:52 112 13.3
2020-May-27 23:47 112 13.3
2020-May-27 23:37 112 12.8
2020-May-27 23:32 112 12.8
2020-May-27 23:27 112 12.2
2020-May-27 23:17 112 11.7
2020-May-27 23:12 112 11.1
2020-May-27 22:52 112 9.4
2020-May-27 22:47 112 8.9
2020-May-27 22:42 112 8.9
2020-May-27 22:37 112 0 gusting 2 8.3
2020-May-27 22:32 112 1 gusting 2 8.3
2020-May-27 22:27 112 1 gusting 2 7.8
2020-May-27 22:22 112 1 gusting 2 7.8
2020-May-27 22:17 112 1 gusting 2 7.8
2020-May-27 22:12 144 1 gusting 2 7.2
2020-May-27 22:07 158 1 gusting 2 7.2
2020-May-27 21:57 135 1 gusting 4 6.7
2020-May-27 21:52 135 1 gusting 4 6.7
2020-May-27 21:47 158 2 gusting 2 6.7
2020-May-27 21:42 143 2 gusting 4 6.1
2020-May-27 21:37 135 4 gusting 5 6.1
2020-May-27 21:32 135 2 gusting 5 6.1
2020-May-27 21:27 135 2 gusting 5 6.1
2020-May-27 21:22 135 2 gusting 5 5.6
2020-May-27 21:17 158 2 gusting 4 5.6
2020-May-27 21:12 143 2 gusting 5 5.6
2020-May-27 21:07 135 1 gusting 5 5.6
2020-May-27 20:57 135 1 gusting 5 5.0
2020-May-27 20:52 103 1 gusting 6 5.0
2020-May-27 20:42 151 1 gusting 5 5.0
2020-May-27 20:37 180 1 gusting 4 4.4
2020-May-27 20:32 145 1 gusting 2 4.4
2020-May-27 20:27 112 1 gusting 1 4.4
2020-May-27 20:17 135 0 gusting 2 3.3
2020-May-27 20:07 112 3.3
2020-May-27 20:02 135 0 gusting 1 3.3
2020-May-27 19:57 135 0 gusting 1 2.8
2020-May-27 19:52 112 2.8
2020-May-27 19:47 158 2.8
2020-May-27 19:37 112 2.8
2020-May-27 19:32 135 0 gusting 0 2.8
2020-May-27 19:27 135 0 gusting 0 2.8
2020-May-27 19:22 135 0 gusting 1 2.8
2020-May-27 19:07 112 2.8
2020-May-27 19:02 135 2.8
2020-May-27 18:57 112 2.8
2020-May-27 18:47 112 2.8
2020-May-27 18:42 093 2.8
2020-May-27 18:32 119 2.8
2020-May-27 18:22 118 2.8
2020-May-27 18:12 135 2.8
2020-May-27 18:02 135 0 gusting 1 2.8
2020-May-27 17:52 158 2.8
2020-May-27 17:47 135 2.8
2020-May-27 17:42 135 3.3
2020-May-27 17:37 135 3.3
2020-May-27 17:32 154 3.3
2020-May-27 17:27 135 3.3
2020-May-27 17:22 135 0 gusting 0 3.3
2020-May-27 17:17 112 0 gusting 1 3.3
2020-May-27 17:07 135 3.3
2020-May-27 17:02 138 3.3
2020-May-27 16:57 135 3.3
2020-May-27 16:52 119 0 gusting 1 3.3
2020-May-27 16:42 127 0 gusting 1 3.3
2020-May-27 16:37 135 0 gusting 1 3.3
2020-May-27 16:32 135 3.3
2020-May-27 16:27 158 3.3
2020-May-27 16:12 135 1 gusting 1 3.9
2020-May-27 16:07 135 0 gusting 1 3.9
2020-May-27 16:02 145 0 gusting 1 3.9
2020-May-27 15:52 160 3.9
2020-May-27 15:47 135 3.9
2020-May-27 15:42 135 0 gusting 1 3.9
2020-May-27 15:37 112 0 gusting 1 3.9
2020-May-27 15:22 221 1 gusting 2 3.9
2020-May-27 15:17 135 0 gusting 2 3.9
2020-May-27 15:12 160 0 gusting 1 3.9
2020-May-27 15:07 158 0 gusting 0 4.4
2020-May-27 15:02 147 0 gusting 1 4.4
2020-May-27 14:57 158 0 gusting 1 4.4
2020-May-27 14:47 135 4.4
2020-May-27 14:42 140 4.4
2020-May-27 14:37 135 0 gusting 0 4.4
2020-May-27 14:27 135 1 gusting 1 4.4
2020-May-27 14:22 147 0 gusting 2 4.4
2020-May-27 14:17 158 0 gusting 1 5.0
2020-May-27 14:12 135 0 gusting 1 5.0
2020-May-27 14:07 135 0 gusting 1 5.0
2020-May-27 13:57 135 0 gusting 1 5.0
2020-May-27 13:52 158 1 gusting 1 5.0
2020-May-27 13:47 158 1 gusting 1 5.0
2020-May-27 13:42 145 0 gusting 1 5.0
2020-May-27 13:37 158 0 gusting 0 5.6
2020-May-27 13:32 091 0 gusting 0 5.6
2020-May-27 13:27 158 0 gusting 0 5.6
2020-May-27 13:22 145 0 gusting 1 5.6
2020-May-27 13:17 158 0 gusting 1 5.6
2020-May-27 13:07 158 0 gusting 1 6.1
2020-May-27 13:02 135 1 gusting 1 6.1
2020-May-27 12:57 135 1 gusting 1 6.1
2020-May-27 12:52 112 0 gusting 2 6.1
2020-May-27 12:47 135 0 gusting 1 6.1
2020-May-27 12:37 090 1 gusting 2 6.1
2020-May-27 12:32 112 1 gusting 2 6.1
2020-May-27 12:27 135 1 gusting 1 6.1
2020-May-27 12:22 144 1 gusting 2 6.1
2020-May-27 12:17 112 1 gusting 2 5.6
2020-May-27 12:02 149 1 gusting 1 5.6
2020-May-27 11:57 135 1 gusting 2 5.6
2020-May-27 11:52 135 1 gusting 2 5.6
2020-May-27 11:47 135 1 gusting 2 6.1
2020-May-27 11:37 158 1 gusting 2 6.1
2020-May-27 11:32 135 1 gusting 2 6.1
2020-May-27 11:27 135 1 gusting 2 5.6
2020-May-27 11:22 135 0 gusting 2 5.6
2020-May-27 11:17 135 0 gusting 1 5.6
2020-May-27 11:12 158 0 gusting 1 5.6
2020-May-27 11:07 158 5.6
2020-May-27 11:02 158 5.6
2020-May-27 10:57 135 6.1
2020-May-27 10:52 158 0 gusting 0 6.1
2020-May-27 10:37 135 6.1
2020-May-27 10:32 167 6.1
2020-May-27 10:27 202 6.1
2020-May-27 10:17 270 6.1
2020-May-27 10:12 066 6.7
2020-May-27 10:02 066 6.7
2020-May-27 09:57 068 7.2
2020-May-27 09:52 101 0 gusting 1 7.2
2020-May-27 09:47 135 0 gusting 1 7.2
2020-May-27 09:42 145 1 gusting 1 7.2
2020-May-27 09:37 158 1 gusting 1 7.2
2020-May-27 09:22 063 2 gusting 4 7.2
2020-May-27 09:17 135 2 gusting 4 7.2
2020-May-27 09:02 121 1 gusting 4 7.2
2020-May-27 08:57 112 1 gusting 2 7.2
2020-May-27 08:52 129 1 gusting 1 7.2
2020-May-27 08:47 158 1 gusting 2 7.2
2020-May-27 08:37 158 1 gusting 2 7.2
2020-May-27 08:17 135 1 gusting 0 7.8
2020-May-27 08:12 112 1 gusting 1 7.2
2020-May-27 08:02 112 1 gusting 2 7.2
2020-May-27 07:52 112 0 gusting 1 6.7
2020-May-27 07:47 112 6.7
2020-May-27 07:42 097 7.2
2020-May-27 07:27 090 0 gusting 0 7.2
2020-May-27 07:22 128 0 gusting 1 7.8
2020-May-27 07:07 112 7.8
2020-May-27 07:02 112 7.8